period_start,C,m1,H,J0,J1,J2,J3,J4,J5,JA,JB,JC,JD,JJ,JK,JN,#
2014-03-04 00:00:36,0.32,7.71,0.00,21.34,27.20,30.00,6.22,32.00,1031.75,2036.53,1502.57,1813.82,1962.42,349.78,330.43,19.22,0000 0000 0000 0000 000000
2014-03-04 00:01:36,0.51,7.71,0.00,21.33,27.20,29.98,6.11,32.25,1031.73,2036.51,1502.16,1813.34,1962.15,349.30,329.78,19.23,0000 0000 0000 0000 000000
2014-03-04 00:02:37,0.51,7.71,0.00,21.32,27.20,30.01,6.04,32.08,1031.75,2036.41,1501.56,1813.12,1961.88,349.49,330.22,19.23,0000 0000 0000 0000 000000
2014-03-04 00:03:37,0.40,7.71,0.00,21.30,27.20,29.98,6.23,31.96,1031.75,2036.52,1501.20,1813.01,1961.41,350.16,330.63,19.24,0000 0000 0000 0000 000000
2014-03-04 00:04:37,0.49,7.71,0.00,21.30,27.20,29.92,6.10,32.29,1031.75,2036.50,1500.75,1812.61,1961.15,349.96,330.94,19.24,0000 0000 0000 0000 000000
2014-03-04 00:05:38,0.49,7.72,0.00,21.29,27.19,29.95,6.08,32.04,1031.75,2036.49,1500.28,1812.22,1961.05,348.81,329.57,19.25,0000 0000 0000 0000 000000
2014-03-04 00:06:38,0.47,7.72,0.00,21.30,27.18,29.83,6.08,31.88,1031.74,2036.64,1500.10,1812.08,1960.79,349.04,329.56,19.26,0000 0000 0000 0000 000000
2014-03-04 00:07:38,0.42,7.73,0.00,21.29,27.17,29.90,6.15,31.96,1031.75,2036.73,1499.82,1811.97,1960.31,349.91,330.46,19.26,0000 0000 0000 0000 000000
2014-03-04 00:08:39,0.50,7.73,0.00,21.29,27.17,29.92,6.10,31.96,1031.75,2036.82,1499.33,1811.59,1960.11,349.09,329.84,19.27,0000 0000 0000 0000 000000
2014-03-04 00:09:39,0.58,7.73,0.00,21.29,27.17,29.93,6.17,32.21,1031.75,2036.87,1499.07,1811.22,1959.91,348.58,329.35,19.27,0000 0000 0000 0000 000000
2014-03-04 00:10:39,0.51,7.74,0.00,21.29,27.17,29.92,6.27,32.13,1031.75,2036.93,1498.56,1811.08,1959.43,350.26,331.05,19.28,0000 0000 0000 0000 000000
2014-03-04 00:11:39,0.49,7.74,0.00,21.29,27.17,29.90,6.25,32.25,1031.75,2036.95,1498.20,1810.87,1959.16,350.83,331.82,19.28,0000 0000 0000 0000 000000
2014-03-04 00:12:40,0.41,7.74,0.00,21.29,27.16,29.89,6.34,32.29,1031.75,2036.95,1497.94,1810.41,1959.03,350.87,331.75,19.29,0000 0000 0000 0000 000000
2014-03-04 00:13:40,0.43,7.74,0.00,21.29,27.15,29.92,6.15,32.33,1031.75,2036.97,1497.45,1810.15,1958.66,349.57,330.55,19.30,0000 0000 0000 0000 000000
2014-03-04 00:14:40,0.48,7.75,0.00,21.29,27.15,29.92,6.05,32.17,1031.75,2036.96,1497.16,1810.05,1958.25,349.26,330.00,19.30,0000 0000 0000 0000 000000
2014-03-04 00:15:40,0.32,7.75,0.00,21.29,27.15,29.95,6.18,31.92,1031.75,2036.97,1496.95,1809.87,1958.07,350.01,330.72,19.31,0000 0000 0000 0000 000000
2014-03-04 00:16:41,0.37,7.75,0.00,21.27,27.15,29.91,6.14,31.75,1031.75,2036.98,1496.42,1809.40,1957.81,350.29,331.15,19.31,0000 0000 0000 0000 000000
2014-03-04 00:17:41,0.54,7.75,0.00,21.27,27.15,29.85,6.20,32.08,1031.75,2036.98,1496.15,1809.14,1957.37,350.88,331.02,19.32,0000 0000 0000 0000 000000
2014-03-04 00:18:41,0.40,7.75,0.00,21.27,27.14,29.81,6.10,31.96,1031.75,2036.98,1496.02,1809.05,1957.14,349.14,330.38,19.33,0000 0000 0000 0000 000000
2014-03-04 00:19:41,0.21,7.75,0.00,21.27,27.13,29.79,6.13,32.08,1031.75,2036.97,1495.63,1808.92,1957.03,349.35,330.16,19.33,0000 0000 0000 0000 000000
2014-03-04 00:20:42,0.31,7.76,0.00,21.27,27.12,29.82,6.19,31.92,1031.75,2036.96,1495.23,1808.47,1956.74,349.37,330.21,19.34,0000 0000 0000 0000 000000
2014-03-04 00:21:42,0.46,7.76,0.00,21.27,27.12,29.89,6.12,31.96,1031.74,2036.97,1495.08,1808.17,1956.35,349.79,330.52,19.34,0000 0000 0000 0000 000000
2014-03-04 00:22:42,0.37,7.76,0.00,21.25,27.12,29.89,6.18,31.83,1031.74,2036.99,1494.76,1808.06,1956.13,350.54,331.25,19.35,0000 0000 0000 0000 000000
2014-03-04 00:23:42,0.32,7.77,0.00,21.25,27.12,29.87,6.17,32.00,1031.75,2036.99,1494.30,1807.91,1956.02,349.76,330.31,19.36,0000 0000 0000 0000 000000
2014-03-04 00:24:42,0.38,7.77,0.00,21.25,27.12,29.84,6.12,32.00,1031.75,2036.99,1494.04,1807.46,1955.64,350.53,331.25,19.36,0000 0000 0000 0000 000000
2014-03-04 00:25:43,0.48,7.77,0.00,21.24,27.11,29.81,6.13,32.17,1031.75,2036.99,1493.58,1807.17,1955.23,349.96,330.72,19.37,0000 0000 0000 0000 000000
2014-03-04 00:26:43,0.50,7.77,0.00,21.23,27.10,29.90,6.14,31.92,1031.75,2036.99,1493.21,1807.06,1955.07,350.56,331.29,19.37,0000 0000 0000 0000 000000
2014-03-04 00:27:43,0.29,7.77,0.00,21.23,27.10,29.89,6.16,31.83,1031.72,2036.98,1492.86,1806.75,1954.78,349.94,330.55,19.38,0000 0000 0000 0000 000000
2014-03-04 00:28:43,0.49,7.77,0.00,21.24,27.10,29.87,6.14,32.00,1031.73,2036.99,1492.33,1806.28,1954.29,349.83,330.69,19.38,0000 0000 0000 0000 000000
2014-03-04 00:29:44,0.62,7.78,0.00,21.24,27.10,29.89,6.03,32.00,1031.68,2036.98,1491.90,1806.08,1954.10,350.04,330.76,19.39,0000 0000 0000 0000 000000
2014-03-04 00:30:44,0.42,7.78,0.00,21.23,27.10,29.86,6.24,32.13,1031.70,2036.99,1491.38,1805.93,1953.88,350.28,331.01,19.40,0000 0000 0000 0000 000000
2014-03-04 00:31:44,0.45,7.79,0.00,21.22,27.08,29.81,6.14,32.04,1031.65,2036.99,1491.14,1805.50,1953.37,350.00,330.74,19.40,0000 0000 0000 0000 000000
2014-03-04 00:32:45,0.46,7.79,0.00,21.22,27.07,29.81,6.14,32.00,1031.61,2036.99,1490.83,1805.19,1953.13,349.42,330.18,19.41,0000 0000 0000 0000 000000
2014-03-04 00:33:45,0.42,7.79,0.00,21.22,27.07,29.84,6.13,32.00,1031.64,2036.99,1490.35,1805.06,1952.99,350.14,330.87,19.41,0000 0000 0000 0000 000000
2014-03-04 00:34:45,0.38,7.79,0.00,21.22,27.07,29.77,6.10,32.13,1031.69,2036.99,1490.10,1804.89,1952.52,349.37,330.17,19.42,0000 0000 0000 0000 000000
2014-03-04 00:35:45,0.41,7.79,0.00,21.22,27.07,29.80,6.08,32.04,1031.71,2036.99,1489.64,1804.40,1952.19,348.85,329.67,19.43,0000 0000 0000 0000 000000
2014-03-04 00:36:46,0.52,7.80,0.00,21.22,27.07,29.88,6.20,32.25,1031.74,2036.99,1489.24,1804.14,1952.07,349.16,330.19,19.43,0000 0000 0000 0000 000000
2014-03-04 00:37:46,0.35,7.80,0.00,21.22,27.07,29.84,6.13,31.96,1031.75,2036.99,1489.06,1804.03,1951.90,349.47,330.63,19.44,0000 0000 0000 0000 000000
2014-03-04 00:38:46,0.29,7.80,0.00,21.22,27.05,29.79,6.03,31.83,1031.75,2036.99,1488.72,1803.82,1951.44,349.90,330.69,19.44,0000 0000 0000 0000 000000
2014-03-04 00:39:47,0.45,7.81,0.00,21.21,27.05,29.70,6.23,32.17,1031.75,2036.99,1488.30,1803.37,1951.17,350.40,331.14,19.45,0000 0000 0000 0000 000000
2014-03-04 00:40:47,0.46,7.81,0.00,21.20,27.05,29.75,6.12,32.21,1031.75,2036.99,1488.09,1803.13,1951.00,349.77,330.43,19.45,0000 0000 0000 0000 000000
2014-03-04 00:41:47,0.31,7.81,0.00,21.21,27.05,29.77,6.17,32.17,1031.72,2036.99,1487.67,1803.03,1950.56,349.20,330.28,19.46,0000 0000 0000 0000 000000
2014-03-04 00:42:48,0.41,7.81,0.00,21.22,27.05,29.83,6.13,32.00,1031.74,2037.01,1487.26,1802.88,1950.21,349.96,331.07,19.47,0000 0000 0000 0000 000000
2014-03-04 00:43:48,0.41,7.82,0.00,21.21,27.05,29.76,6.04,32.04,1031.73,2037.01,1487.09,1802.42,1950.07,349.49,330.46,19.47,0000 0000 0000 0000 000000
2014-03-04 00:44:48,0.35,7.82,0.00,21.20,27.04,29.84,6.33,32.04,1031.71,2037.01,1486.68,1802.16,1949.90,351.14,331.87,19.48,0000 0000 0000 0000 000000
2014-03-04 00:45:49,0.46,7.82,0.00,21.19,27.03,29.76,6.18,32.13,1031.72,2037.00,1486.25,1802.03,1949.43,350.96,331.66,19.48,0000 0000 0000 0000 000000
2014-03-04 00:46:49,0.40,7.82,0.00,21.19,27.02,29.81,6.28,32.25,1031.72,2037.01,1485.94,1801.63,1949.15,350.26,331.05,19.49,0000 0000 0000 0000 000000
2014-03-04 00:47:49,0.53,7.83,0.00,21.19,27.02,29.79,6.11,32.13,1031.75,2037.00,1485.41,1801.23,1949.02,350.39,331.17,19.50,0000 0000 0000 0000 000000
2014-03-04 00:48:49,0.46,7.83,0.00,21.18,27.02,29.72,6.08,32.13,1031.74,2037.01,1485.14,1801.08,1948.66,349.34,330.19,19.50,0000 0000 0000 0000 000000
2014-03-04 00:49:49,0.34,7.83,0.00,21.18,27.02,29.79,6.09,32.21,1031.74,2037.02,1484.99,1800.99,1948.24,349.03,330.21,19.51,0000 0000 0000 0000 000000
2014-03-04 00:50:50,0.28,7.83,0.00,21.18,27.02,29.76,6.23,32.00,1031.73,2037.03,1484.55,1800.68,1948.07,351.33,331.90,19.51,0000 0000 0000 0000 000000
2014-03-04 00:51:50,0.49,7.84,0.00,21.18,27.01,29.66,6.23,32.08,1031.67,2037.02,1484.20,1800.26,1947.93,350.00,330.81,19.52,0000 0000 0000 0000 000000
2014-03-04 00:52:50,0.43,7.84,0.00,21.18,27.00,29.76,6.19,32.04,1031.56,2037.02,1484.06,1800.09,1947.45,350.26,331.11,19.53,0000 0000 0000 0000 000000
2014-03-04 00:53:50,0.28,7.84,0.00,21.18,27.00,29.81,6.27,32.13,1031.52,2037.02,1483.64,1800.03,1947.16,350.16,330.90,19.53,0000 0000 0000 0000 000000
2014-03-04 00:54:51,0.36,7.84,0.00,21.18,27.00,29.78,6.31,32.08,1031.50,2037.02,1483.23,1799.69,1947.06,350.56,331.27,19.54,0000 0000 0000 0000 000000
2014-03-04 00:55:51,0.43,7.84,0.00,21.17,27.00,29.81,6.28,32.00,1031.47,2037.05,1483.03,1799.29,1946.79,351.05,331.79,19.54,0000 0000 0000 0000 000000
2014-03-04 00:56:51,0.46,7.85,0.00,21.18,27.00,29.81,6.17,32.13,1031.46,2037.06,1482.51,1799.10,1946.32,349.97,330.26,19.55,0000 0000 0000 0000 000000
2014-03-04 00:57:51,0.48,7.85,0.00,21.18,27.00,29.81,6.13,32.04,1031.43,2037.07,1482.18,1798.98,1946.11,349.02,330.15,19.55,0000 0000 0000 0000 000000
2014-03-04 00:58:52,0.32,7.85,0.00,21.18,26.99,29.69,6.25,32.21,1031.45,2037.07,1481.88,1798.55,1945.93,350.89,331.57,19.56,0000 0000 0000 0000 000000
2014-03-04 00:59:52,0.50,7.85,0.00,21.17,26.98,29.68,6.01,32.00,1031.61,2037.05,1481.36,1798.20,1945.43,349.43,330.25,19.57,0000 0000 0000 0000 000000
2014-03-04 01:00:52,0.54,7.86,0.00,21.17,26.97,29.73,6.07,32.08,1031.60,2037.08,1481.06,1798.06,1945.15,349.58,330.64,19.57,0000 0000 0000 0000 000000
2014-03-04 01:01:52,0.35,7.86,0.00,21.16,26.97,29.77,6.17,32.38,1031.62,2037.08,1480.54,1797.80,1945.03,349.71,330.52,19.58,0000 0000 0000 0000 000000
2014-03-04 01:02:53,0.47,7.86,0.00,21.15,26.97,29.79,6.16,31.92,1031.61,2037.08,1480.19,1797.34,1944.66,349.85,330.67,19.58,0000 0000 0000 0000 000000
2014-03-04 01:03:53,0.51,7.87,0.00,21.16,26.97,29.78,6.16,32.08,1031.66,2037.05,1480.05,1797.13,1944.25,350.67,331.45,19.59,0000 0000 0000 0000 000000
2014-03-04 01:04:53,0.30,7.87,0.00,21.15,26.97,29.79,6.20,32.04,1031.69,2037.08,1479.63,1797.02,1944.09,350.16,330.99,19.60,0000 0000 0000 0000 000000
2014-03-04 01:05:54,0.36,7.87,0.00,21.14,26.97,29.76,6.16,31.83,1031.70,2037.08,1479.23,1796.85,1944.00,350.70,331.51,19.60,0000 0000 0000 0000 000000
2014-03-04 01:06:54,0.36,7.87,0.00,21.14,26.95,29.78,6.17,32.17,1031.74,2037.10,1479.09,1796.42,1943.74,349.40,330.30,19.61,0000 0000 0000 0000 000000
2014-03-04 01:07:54,0.42,7.87,0.00,21.13,26.95,29.80,6.17,32.21,1031.73,2037.15,1479.02,1796.16,1943.30,349.72,330.43,19.61,0000 0000 0000 0000 000000
2014-03-04 01:08:55,0.32,7.88,0.00,21.14,26.95,29.78,6.20,32.21,1031.71,2037.16,1478.78,1796.06,1943.11,350.27,331.11,19.62,0000 0000 0000 0000 000000
2014-03-04 01:09:55,0.29,7.88,0.00,21.14,26.95,29.80,6.25,32.29,1031.71,2037.14,1478.30,1795.98,1942.97,350.49,331.38,19.62,0000 0000 0000 0000 000000
2014-03-04 01:10:55,0.31,7.88,0.00,21.13,26.95,29.75,6.28,31.92,1031.70,2037.15,1478.11,1795.62,1942.57,350.59,331.42,19.63,0000 0000 0000 0000 000000
2014-03-04 01:11:55,0.42,7.88,0.00,21.14,26.95,29.76,6.11,32.13,1031.61,2037.13,1477.74,1795.24,1942.21,349.56,330.40,19.64,0000 0000 0000 0000 000000
2014-03-04 01:12:56,0.50,7.88,0.00,21.14,26.94,29.69,6.10,32.08,1031.58,2037.14,1477.27,1795.08,1942.02,349.77,330.58,19.64,0000 0000 0000 0000 000000
2014-03-04 01:13:56,0.38,7.89,0.00,21.14,26.93,29.70,6.09,32.00,1031.66,2037.21,1477.05,1794.98,1941.85,349.70,330.88,19.65,0000 0000 0000 0000 000000
2014-03-04 01:14:56,0.35,7.89,0.00,21.14,26.93,29.72,6.27,32.21,1031.66,2037.33,1476.52,1794.54,1941.36,349.14,330.02,19.65,0000 0000 0000 0000 000000
2014-03-04 01:15:56,0.82,7.89,0.00,21.14,26.92,29.72,6.12,32.04,1031.57,2037.35,1476.18,1794.22,1941.12,349.04,330.04,19.66,0000 0000 0000 0000 000000
2014-03-04 01:16:57,0.40,7.90,0.00,21.14,26.92,29.74,6.00,32.13,1031.44,2037.42,1475.92,1794.06,1940.95,349.68,330.45,19.67,0000 0000 0000 0000 000000
2014-03-04 01:17:57,0.41,7.90,0.00,21.13,26.92,29.74,6.10,32.04,1031.36,2037.55,1475.38,1793.82,1940.48,349.56,330.30,19.67,0000 0000 0000 0000 000000
2014-03-04 01:18:57,0.71,7.90,0.00,21.12,26.92,29.73,6.18,32.00,1031.33,2037.63,1475.09,1793.32,1940.16,350.03,330.78,19.68,0000 0000 0000 0000 000000
2014-03-04 01:19:58,0.63,7.91,0.00,21.12,26.92,29.65,6.18,32.13,1031.33,2037.66,1474.53,1793.09,1939.84,349.38,330.38,19.68,0000 0000 0000 0000 000000
2014-03-04 01:20:58,0.53,7.91,0.00,21.12,26.92,29.70,6.18,32.13,1031.41,2037.64,1474.14,1792.71,1939.32,350.51,331.26,19.69,0000 0000 0000 0000 000000
2014-03-04 01:21:58,0.57,7.91,0.00,21.12,26.90,29.69,6.38,32.17,1031.50,2037.62,1473.70,1792.28,1939.11,350.67,331.44,19.70,0000 0000 0000 0000 000000
2014-03-04 01:22:58,0.48,7.92,0.00,21.12,26.90,29.74,6.28,32.00,1031.49,2037.63,1473.25,1792.10,1938.80,350.68,331.45,19.70,0000 0000 0000 0000 000000
2014-03-04 01:23:59,0.38,7.92,0.00,21.12,26.90,29.72,6.16,32.13,1031.58,2037.50,1473.03,1791.96,1938.32,349.85,330.69,19.71,0000 0000 0000 0000 000000
2014-03-04 01:24:59,0.17,7.92,0.00,21.12,26.90,29.77,6.20,32.21,1031.65,2037.60,1472.74,1791.56,1938.11,349.76,330.63,19.71,0000 0000 0000 0000 000000
2014-03-04 01:25:59,0.69,7.92,0.00,21.12,26.90,29.76,6.05,31.92,1031.69,2037.61,1472.29,1791.22,1937.95,349.11,329.74,19.72,0000 0000 0000 0000 000000
2014-03-04 01:26:59,0.40,7.93,0.00,21.12,26.90,29.77,6.11,32.17,1031.70,2037.62,1472.10,1791.08,1937.58,350.20,331.06,19.72,0000 0000 0000 0000 000000
2014-03-04 01:28:00,0.36,7.93,0.00,21.11,26.89,29.76,6.02,31.92,1031.72,2037.77,1471.97,1790.99,1937.24,349.26,330.14,19.73,0000 0000 0000 0000 000000
2014-03-04 01:29:00,0.30,7.93,0.00,21.11,26.89,29.72,6.01,32.29,1031.74,2037.77,1471.47,1790.62,1937.08,347.92,329.30,19.74,0000 0000 0000 0000 000000
2014-03-04 01:30:00,0.61,7.93,0.00,21.12,26.88,29.73,6.27,32.38,1031.74,2037.79,1471.17,1790.24,1936.80,350.09,330.97,19.74,0000 0000 0000 0000 000000
2014-03-04 01:31:00,0.40,7.94,0.00,21.12,26.87,29.74,6.32,32.25,1031.74,2037.76,1470.99,1790.08,1936.35,349.88,331.06,19.75,0000 0000 0000 0000 000000
2014-03-04 01:32:00,0.32,7.94,0.00,21.12,26.87,29.68,6.29,32.17,1031.75,2037.85,1470.50,1790.01,1936.13,350.26,331.13,19.75,0000 0000 0000 0000 000000
2014-03-04 01:33:01,0.45,7.94,0.00,21.11,26.87,29.67,6.17,32.08,1031.73,2037.88,1470.18,1789.64,1936.03,349.71,330.93,19.76,0000 0000 0000 0000 000000
2014-03-04 01:34:01,0.46,7.94,0.00,21.10,26.87,29.72,6.28,32.04,1031.75,2037.94,1470.04,1789.26,1935.79,350.74,331.50,19.77,0000 0000 0000 0000 000000
2014-03-04 01:35:01,0.40,7.94,0.00,21.11,26.87,29.72,6.20,32.13,1031.75,2037.97,1469.73,1789.09,1935.38,349.70,330.98,19.77,0000 0000 0000 0000 000000
2014-03-04 01:36:01,0.44,7.95,0.00,21.11,26.86,29.65,6.18,32.25,1031.74,2037.98,1469.31,1788.99,1935.14,350.19,330.90,19.78,0000 0000 0000 0000 000000
2014-03-04 01:37:02,0.34,7.95,0.00,21.11,26.86,29.69,6.08,32.17,1031.74,2037.96,1469.10,1788.64,1935.03,349.01,329.96,19.78,0000 0000 0000 0000 000000
2014-03-04 01:38:02,0.31,7.95,0.00,21.10,26.85,29.71,6.07,31.83,1031.73,2037.95,1468.64,1788.28,1934.60,350.03,330.94,19.79,0000 0000 0000 0000 000000
2014-03-04 01:39:02,0.59,7.96,0.00,21.10,26.85,29.69,6.13,31.96,1031.69,2037.94,1468.23,1788.10,1934.22,349.49,330.52,19.79,0000 0000 0000 0000 000000
2014-03-04 01:40:02,0.38,7.96,0.00,21.09,26.85,29.70,6.22,32.00,1031.70,2037.94,1468.06,1788.02,1934.06,350.29,330.69,19.80,0000 0000 0000 0000 000000
2014-03-04 01:41:02,0.20,7.96,0.00,21.09,26.85,29.68,6.14,32.29,1031.72,2037.94,1467.71,1787.65,1933.82,350.44,331.33,19.81,0000 0000 0000 0000 000000
2014-03-04 01:42:03,0.51,7.96,0.00,21.08,26.85,29.69,6.16,31.96,1031.72,2037.95,1467.27,1787.25,1933.36,349.66,330.60,19.81,0000 0000 0000 0000 000000
2014-03-04 01:43:03,0.56,7.96,0.00,21.09,26.85,29.67,6.23,32.13,1031.73,2037.97,1467.08,1787.08,1933.13,349.14,330.22,19.82,0000 0000 0000 0000 000000
2014-03-04 01:44:03,0.28,7.97,0.00,21.09,26.84,29.61,6.25,32.08,1031.75,2037.98,1466.71,1786.94,1932.99,351.29,332.15,19.82,0000 0000 0000 0000 000000
2014-03-04 01:45:03,0.35,7.97,0.00,21.09,26.84,29.66,6.17,32.04,1031.72,2037.97,1466.25,1786.52,1932.63,350.34,331.23,19.83,0000 0000 0000 0000 000000
2014-03-04 01:46:04,0.55,7.97,0.00,21.09,26.83,29.69,6.19,32.13,1031.67,2037.98,1466.09,1786.22,1932.26,349.84,330.74,19.84,0000 0000 0000 0000 000000
2014-03-04 01:47:04,0.37,7.97,0.00,21.09,26.82,29.62,6.13,32.04,1031.56,2037.97,1465.85,1786.07,1932.09,349.39,330.29,19.84,0000 0000 0000 0000 000000
2014-03-04 01:48:04,0.26,7.98,0.00,21.08,26.82,29.57,6.11,32.13,1031.44,2037.98,1465.38,1785.95,1931.97,349.62,330.25,19.85,0000 0000 0000 0000 000000
2014-03-04 01:49:05,0.35,7.98,0.00,21.07,26.82,29.61,6.00,32.13,1031.33,2037.99,1465.14,1785.59,1931.53,349.50,330.33,19.85,0000 0000 0000 0000 000000
2014-03-04 01:50:05,0.50,7.98,0.00,21.08,26.82,29.62,6.08,32.17,1031.38,2037.98,1464.94,1785.22,1931.19,349.91,330.73,19.86,0000 0000 0000 0000 000000
2014-03-04 01:51:05,0.37,7.98,0.00,21.08,26.82,29.58,6.09,31.96,1031.40,2037.99,1464.44,1785.08,1931.04,350.18,331.05,19.87,0000 0000 0000 0000 000000
2014-03-04 01:52:05,0.41,7.98,0.00,21.07,26.82,29.59,6.13,32.04,1031.47,2037.99,1464.16,1784.80,1930.59,350.42,331.35,19.87,0000 0000 0000 0000 000000
2014-03-04 01:53:05,0.47,7.99,0.00,21.07,26.82,29.63,6.06,32.08,1031.54,2037.99,1463.77,1784.33,1930.22,349.08,329.92,19.88,0000 0000 0000 0000 000000
2014-03-04 01:54:05,0.59,7.99,0.00,21.07,26.81,29.65,6.24,32.04,1031.51,2037.98,1463.28,1784.11,1930.06,350.00,330.86,19.88,0000 0000 0000 0000 000000
2014-03-04 01:55:06,0.39,7.99,0.00,21.07,26.81,29.63,6.10,32.08,1031.40,2037.99,1462.85,1783.94,1929.63,350.23,330.73,19.89,0000 0000 0000 0000 000000
2014-03-04 01:56:06,0.50,8.00,0.00,21.07,26.80,29.61,6.20,32.21,1031.34,2037.99,1462.32,1783.46,1929.23,350.45,331.24,19.89,0000 0000 0000 0000 000000
2014-03-04 01:57:06,0.68,8.00,0.00,21.07,26.80,29.64,6.16,32.13,1031.41,2037.99,1461.89,1783.16,1928.94,349.53,330.39,19.90,0000 0000 0000 0000 000000
2014-03-04 01:58:06,0.50,8.00,0.00,21.06,26.80,29.66,6.26,32.04,1031.49,2037.99,1461.34,1782.80,1928.39,350.40,331.25,19.91,0000 0000 0000 0000 000000
2014-03-04 01:59:06,0.67,8.01,0.00,21.06,26.80,29.61,6.24,32.25,1031.53,2037.99,1460.90,1782.32,1928.13,350.51,331.37,19.91,0000 0000 0000 0000 000000
2014-03-04 02:00:06,0.56,8.01,0.00,21.07,26.80,29.59,6.13,32.08,1031.53,2037.99,1460.36,1782.08,1927.67,351.12,331.94,19.92,0000 0000 0000 0000 000000
2014-03-04 02:01:07,0.58,8.01,0.00,21.06,26.80,29.52,6.40,32.17,1031.49,2037.99,1459.94,1781.70,1927.25,350.64,330.94,19.92,0000 0000 0000 0000 000000
2014-03-04 02:02:07,0.57,8.02,0.00,21.05,26.79,29.47,6.23,32.00,1031.55,2037.99,1459.39,1781.27,1927.01,349.96,330.83,19.93,0000 0000 0000 0000 000000
2014-03-04 02:03:07,0.60,8.02,0.00,21.05,26.79,29.54,6.23,32.08,1031.50,2037.99,1458.99,1781.07,1926.54,349.87,330.54,19.94,0000 0000 0000 0000 000000
2014-03-04 02:04:07,0.48,8.02,0.00,21.05,26.78,29.59,6.26,32.04,1031.54,2037.98,1458.48,1780.67,1926.19,350.39,331.39,19.94,0000 0000 0000 0000 000000
2014-03-04 02:05:07,0.63,8.03,0.00,21.05,26.77,29.63,6.07,32.21,1031.52,2037.99,1458.16,1780.29,1925.96,349.23,330.45,19.95,0000 0000 0000 0000 000000
2014-03-04 02:06:07,0.38,8.03,0.00,21.05,26.77,29.63,5.97,32.13,1031.48,2037.99,1457.88,1780.10,1925.44,349.50,330.28,19.95,0000 0000 0000 0000 000000
2014-03-04 02:07:08,0.42,8.03,0.00,21.05,26.77,29.63,6.17,32.17,1031.50,2037.99,1457.41,1779.87,1925.17,349.43,330.35,19.96,0000 0000 0000 0000 000000
2014-03-04 02:08:08,0.50,8.04,0.00,21.04,26.77,29.59,6.24,32.00,1031.50,2037.99,1457.14,1779.39,1925.00,350.50,331.37,19.96,0000 0000 0000 0000 000000
2014-03-04 02:09:08,0.44,8.04,0.00,21.04,26.77,29.57,6.14,32.00,1031.47,2037.99,1456.74,1779.14,1924.52,349.84,330.49,19.97,0000 0000 0000 0000 000000
2014-03-04 02:10:08,0.56,8.04,0.00,21.04,26.77,29.61,6.02,32.21,1031.44,2037.99,1456.26,1778.86,1924.17,349.19,330.00,19.98,0000 0000 0000 0000 000000
2014-03-04 02:11:08,0.46,8.04,0.00,21.04,26.77,29.60,6.31,31.96,1031.38,2037.99,1455.77,1778.39,1923.84,350.83,331.64,19.98,0000 0000 0000 0000 000000
2014-03-04 02:12:09,0.69,8.05,0.00,21.05,26.77,29.60,6.27,32.08,1031.36,2037.99,1455.29,1778.14,1923.34,351.29,332.07,19.99,0000 0000 0000 0000 000000
2014-03-04 02:13:09,0.53,8.05,0.00,21.05,26.76,29.47,6.08,32.33,1031.31,2037.99,1454.96,1777.86,1923.12,349.09,329.97,19.99,0000 0000 0000 0000 000000
2014-03-04 02:14:09,0.39,8.05,0.00,21.04,26.75,29.51,6.28,32.08,1031.28,2037.99,1454.42,1777.38,1922.80,351.23,331.94,20.00,0000 0000 0000 0000 000000
2014-03-04 02:15:09,0.69,8.06,0.00,21.04,26.75,29.57,6.14,32.13,1031.28,2037.99,1454.15,1777.13,1922.32,348.91,329.49,20.01,0000 0000 0000 0000 000000
2014-03-04 02:16:10,0.40,8.06,0.00,21.04,26.75,29.61,6.25,32.13,1031.30,2037.99,1453.99,1777.03,1922.11,349.81,330.93,20.01,0000 0000 0000 0000 000000
2014-03-04 02:17:10,0.18,8.06,0.00,21.04,26.75,29.61,6.13,32.17,1031.29,2037.99,1453.59,1776.80,1921.96,350.09,330.92,20.02,0000 0000 0000 0000 000000
2014-03-04 02:18:10,0.41,8.06,0.00,21.04,26.75,29.54,6.10,32.00,1031.31,2037.99,1453.22,1776.35,1921.51,349.90,331.09,20.02,0000 0000 0000 0000 000000
2014-03-04 02:19:10,0.63,8.07,0.00,21.04,26.75,29.53,6.13,32.00,1031.28,2037.99,1452.95,1776.12,1921.18,349.66,330.50,20.03,0000 0000 0000 0000 000000
2014-03-04 02:20:11,0.32,8.07,0.00,21.04,26.75,29.60,6.03,31.96,1031.28,2038.00,1452.43,1776.02,1921.05,348.46,329.17,20.04,0000 0000 0000 0000 000000
2014-03-04 02:21:11,0.43,8.07,0.00,21.04,26.75,29.58,6.15,32.25,1031.28,2038.02,1452.16,1775.70,1920.73,349.72,330.46,20.04,0000 0000 0000 0000 000000
2014-03-04 02:22:11,0.48,8.07,0.00,21.04,26.75,29.58,6.13,32.08,1031.27,2038.01,1451.88,1775.27,1920.29,349.39,330.41,20.05,0000 0000 0000 0000 000000
2014-03-04 02:23:11,0.47,8.08,0.00,21.04,26.75,29.61,6.15,32.17,1031.27,2038.01,1451.37,1775.09,1920.08,349.96,330.72,20.05,0000 0000 0000 0000 000000
2014-03-04 02:24:12,0.45,8.08,0.00,21.04,26.74,29.61,6.21,32.25,1031.28,2038.02,1451.10,1774.75,1919.84,350.71,331.49,20.06,0000 0000 0000 0000 000000
2014-03-04 02:25:12,0.41,8.08,0.00,21.05,26.73,29.59,6.27,32.29,1031.27,2038.01,1450.60,1774.31,1919.35,350.60,331.38,20.06,0000 0000 0000 0000 000000
2014-03-04 02:26:12,0.69,8.09,0.00,21.05,26.73,29.58,6.18,32.29,1031.27,2038.01,1450.22,1774.11,1919.12,349.89,330.71,20.07,0000 0000 0000 0000 000000
2014-03-04 02:27:13,0.37,8.09,0.00,21.05,26.72,29.59,6.17,32.13,1031.27,2038.01,1449.93,1773.91,1918.90,350.29,331.09,20.08,0000 0000 0000 0000 000000
2014-03-04 02:28:13,0.28,8.09,0.00,21.04,26.72,29.56,6.14,32.00,1031.27,2038.00,1449.40,1773.46,1918.44,350.04,330.54,20.08,0000 0000 0000 0000 000000
2014-03-04 02:29:13,0.74,8.09,0.00,21.04,26.72,29.57,6.23,32.33,1031.27,2038.01,1449.00,1773.17,1918.17,349.88,330.63,20.09,0000 0000 0000 0000 000000
2014-03-04 02:30:13,0.42,8.10,0.00,21.04,26.72,29.61,6.23,32.25,1031.27,2038.02,1448.42,1772.96,1917.81,350.34,331.13,20.09,0000 0000 0000 0000 000000
2014-03-04 02:31:14,0.58,8.10,0.00,21.04,26.72,29.57,6.15,32.46,1031.27,2038.02,1448.15,1772.46,1917.34,349.99,330.81,20.10,0000 0000 0000 0000 000000
2014-03-04 02:32:14,0.59,8.10,0.00,21.04,26.72,29.57,6.15,32.17,1031.28,2038.01,1448.04,1772.17,1917.12,349.63,330.47,20.11,0000 0000 0000 0000 000000
2014-03-04 02:33:14,0.26,8.11,0.00,21.05,26.72,29.60,6.28,32.21,1031.28,2038.00,1447.80,1772.06,1917.02,349.79,330.31,20.11,0000 0000 0000 0000 000000
2014-03-04 02:34:14,0.19,8.11,0.00,21.04,26.72,29.53,6.17,32.08,1031.28,2038.04,1447.32,1771.99,1916.79,350.24,331.05,20.12,0000 0000 0000 0000 000000
2014-03-04 02:35:15,0.42,8.11,0.00,21.04,26.72,29.49,6.20,31.79,1031.28,2038.05,1447.08,1771.68,1916.32,351.20,331.96,20.12,0000 0000 0000 0000 000000
2014-03-04 02:36:15,0.46,8.11,0.00,21.04,26.72,29.55,6.12,32.21,1031.28,2038.07,1446.62,1771.27,1916.11,349.83,330.67,20.13,0000 0000 0000 0000 000000